[[{"header":{"parameterUnit":"m.s-1","parameterCategory":1,"la1":30.2991,"la2":30.254,"lo1":-89.0895,"lo2":-89.0444,"dy":0.0017,"dx":0.0017,"nx":28,"ny":28,"refTime":"2024-07-27T09:00:00:Z","depth":0,"parameterNumber":2,"parameterNumberName":"U-component_of_WINDS"},"data":[0,0,0,0,0,0,0,0,0,0,0,0,0,0,0,0,0,0,0,0,0,0,0,0,0,0,0,0,0,0,0,0,0,0,0,0,0,0,0,0,0,0,0,0,0,0,0,0,0,0,0,0,0,0,0,0,0,0,-0.0199,-0.0198,0,-0.0129,-0.0128,-0.0127,-0.0099,-0.0099,-0.01,-0.01,-0.0023,-0.0021,-0.0019,0,0,0,0,0,0,0,0,0,0,0,0,0,-0.0303,-0.0302,-0.0199,-0.0198,-0.0197,-0.0129,-0.0128,-0.0127,-0.0099,-0.0099,-0.01,-0.01,-0.0024,-0.0021,-0.0019,0,0,0,0,0,0,0,0,0,0,0,0,0,-0.0248,-0.0301,-0.0199,-0.0175,-0.0172,-0.0129,-0.0128,-0.0127,-0.0099,-0.01,-0.01,-0.01,-0.0025,-0.0022,-0.0018,0.0008,0,0,-0.0008,-0.0007,0,0,0,0,0,0,0,0,-0.0251,-0.0244,-0.0179,-0.0177,-0.0173,-0.0123,-0.0137,-0.0082,-0.0099,-0.0127,-0.01,-0.01,-0.0056,-0.005,-0.0036,0.0011,0.0015,-0.0008,-0.0006,-0.0004,-0.0003,0,0,0,0,0,0,0,-0.0255,-0.0247,-0.0171,-0.0178,-0.0175,-0.0166,-0.0159,-0.0126,-0.009,-0.0124,-0.0122,-0.0115,-0.0054,-0.0039,-0.0034,0.0016,-0.0008,-0.0005,-0.0003,-0.0002,0.0088,0.0089,0,0,0,0,0,0,-0.0264,-0.0251,-0.0173,-0.0169,-0.0214,-0.0164,-0.0156,-0.0139,-0.0091,-0.0084,-0.0114,-0.0114,-0.0045,-0.0038,-0.0031,0.0002,-0.0004,-0.0001,0.0001,0.0088,0.0088,0.0089,0,0,0,0,0,0,-0.0266,-0.0257,-0.0176,-0.0209,-0.0198,-0.0162,-0.0143,-0.0137,-0.0123,-0.0083,-0.0076,-0.0106,-0.0045,-0.0036,-0.0003,0.0005,0.0,0.0003,0.0087,0.0088,0.0089,0.007,0,0,0,0,0,0,-0.0269,-0.0258,-0.0249,-0.0209,-0.0197,-0.015,-0.0143,-0.0136,-0.0118,-0.0116,-0.0074,-0.0067,-0.0044,-0.0008,0.0001,0.001,0.0006,0.0087,0.0088,0.0088,0.007,0.007,0.007,0,0,0,0,0,-0.0273,-0.0256,-0.0249,-0.0239,-0.0185,-0.0149,-0.0142,-0.0118,-0.0117,-0.0107,-0.0082,-0.0068,0.0003,-0.0004,0.0005,0.0016,0.0087,0.0088,0.0088,0.007,0.007,0.007,0,0,0,0,0,0,-0.0293,-0.025,-0.0242,-0.0211,-0.0185,-0.0145,-0.0131,-0.0119,-0.009,-0.009,-0.0059,-0.005,-0.0019,0.0002,-0.0007,0.0043,0.0046,0.0049,0.0029,0.0029,0.0029,0.0023,0.0009,0,0,0,0,0,-0.0295,-0.0272,-0.0234,-0.0211,-0.0198,-0.0167,-0.0151,-0.0135,-0.0105,-0.0093,-0.0065,-0.0036,-0.0007,0.0012,0.0041,0.0073,0.0083,0.0085,0.0084,0.0084,0.0087,0.0105,0.0107,0.0092,0.0092,0.0092,0,0,-0.0297,-0.027,-0.0257,-0.0214,-0.0192,-0.0167,-0.0158,-0.0132,-0.0112,-0.0088,-0.0056,-0.0034,0.0001,0.0033,0.0049,0.0052,0.0093,0.0085,0.0085,0.0088,0.0106,0.0108,0.0109,0.0092,0.0092,0.0092,0,0,-0.0287,-0.0265,-0.0244,-0.0221,-0.0188,-0.0168,-0.0162,-0.0125,-0.011,-0.0077,-0.0059,-0.0035,0.0014,0.0039,0.0058,0.0075,0.0089,0.0084,0.0083,0.0101,0.0102,0.0103,0.011,0.0112,0.0086,0.0086,0.0086,0,-0.0293,-0.0256,-0.0233,-0.0209,-0.019,-0.017,-0.0147,-0.0126,-0.0084,-0.0071,-0.0069,-0.0008,0.0018,0.0056,0.006,0.0075,0.0082,0.008,0.01,0.0101,0.0103,0.011,0.0112,0.0085,0.0085,0.0085,0.0085,0,-0.0265,-0.024,-0.0226,-0.0188,-0.0168,-0.0144,-0.0117,-0.0099,-0.0085,-0.0064,-0.0031,-0.0,0.0035,0.0045,0.006,0.0086,0.0087,0.0094,0.0097,0.0103,0.011,0.0113,0.0084,0.0084,0.0084,0.0085,0,0,-0.0266,-0.0216,-0.0211,-0.0194,-0.0156,-0.0135,-0.011,-0.0077,-0.0062,-0.0034,-0.0012,0.0029,0.0035,0.0056,0.0074,0.0089,0.0102,0.0094,0.0096,0.0095,0.0133,0.0128,0.0131,0.011,0.0111,0.0111,0.013,0,-0.0251,-0.0207,-0.0185,-0.015,-0.0126,-0.0106,-0.0085,-0.0058,-0.0039,-0.0014,0.0008,0.0037,0.0043,0.0055,0.0071,0.0097,0.011,0.0095,0.0133,0.0134,0.0124,0.0134,0.0129,0.0146,0.0133,0.0133,0.0134,0,-0.0227,-0.0201,-0.0164,-0.0129,-0.0118,-0.0099,-0.0067,-0.0044,-0.0014,-0.0,0.0022,0.0039,0.0068,0.0068,0.0108,0.0097,0.0114,0.0129,0.013,0.0135,0.0135,0.0141,0.0151,0.0154,0.0138,0.0138,0.0138,0,-0.023,-0.0186,-0.0157,-0.0143,-0.0102,-0.0089,-0.0071,-0.0041,-0.0022,0.0006,0.0018,0.005,0.0067,0.0092,0.0117,0.0115,0.0155,0.0157,0.0168,0.0167,0.0176,0.0176,0.0191,0.0185,0.0185,0.0185,0.0185,0,-0.0215,-0.0193,-0.0159,-0.0141,-0.0115,-0.0091,-0.0066,-0.0046,-0.002,0.0003,0.0022,0.0043,0.0074,0.01,0.012,0.015,0.0158,0.017,0.0175,0.0169,0.0167,0.0181,0.0181,0.0186,0.0186,0.0186,0.0185,0,-0.0214,-0.019,-0.0158,-0.0122,-0.0113,-0.0095,-0.0064,-0.0046,-0.0026,0.0002,0.001,0.0042,0.0073,0.01,0.0141,0.0155,0.0186,0.0192,0.0175,0.0178,0.0187,0.0186,0.0213,0.0218,0.0208,0.0208,0.0208,0,-0.0205,-0.0188,-0.0151,-0.0135,-0.0118,-0.0093,-0.0075,-0.005,-0.0031,0.0004,0.0018,0.005,0.0077,0.0125,0.0153,0.0184,0.0192,0.0198,0.0197,0.019,0.0193,0.0192,0.0194,0.0199,0.0199,0.0199,0.0199,0,-0.0192,-0.0182,-0.0157,-0.0128,-0.0107,-0.0083,-0.0058,-0.0046,-0.0016,0.0004,0.0034,0.0055,0.0096,0.0127,0.0161,0.0182,0.0196,0.0199,0.0203,0.0197,0.0187,0.0193,0.0176,0.0198,0.0199,0.0199,0.0199,0.0199,-0.0186,-0.017,-0.0142,-0.0114,-0.0093,-0.0071,-0.0052,-0.0031,-0.0005,0.0029,0.0042,0.0073,0.0104,0.0151,0.0171,0.0197,0.0199,0.0205,0.0207,0.0208,0.0207,0.0182,0.0203,0.0203,0.0203,0.0203,0.0203,0,-0.0172,-0.0153,-0.0128,-0.0095,-0.0073,-0.0064,-0.0036,-0.0018,0.0008,0.0035,0.006,0.0095,0.0125,0.0155,0.0187,0.0202,0.0209,0.0209,0.0209,0.0214,0.0203,0.0196,0.0203,0.0203,0.0203,0.0203,0.0203,0.0203,-0.0161,-0.0133,-0.012,-0.0081,-0.0061,-0.0032,-0.0017,0.0005,0.0026,0.0064,0.0088,0.0106,0.0134,0.0168,0.0197,0.0205,0.0216,0.0215,0.0225,0.0215,0.0215,0.0214,0.0208,0.0217,0.0217,0.0234,0.0234,0.0234]},{"header":{"parameterUnit":"m.s-1","parameterCategory":1,"la1":30.2991,"la2":30.254,"lo1":-89.0895,"lo2":-89.0444,"dy":0.0017,"dx":0.0017,"nx":28,"ny":28,"refTime":"2024-07-27T09:00:00:Z","depth":0,"parameterNumber":3,"parameterNumberName":"V-component_of_WINDS"},"data":[0,0,0,0,0,0,0,0,0,0,0,0,0,0,0,0,0,0,0,0,0,0,0,0,0,0,0,0,0,0,0,0,0,0,0,0,0,0,0,0,0,0,0,0,0,0,0,0,0,0,0,0,0,0,0,0,0,0,2.5416,2.5415,0,2.533,2.5329,2.5328,2.5289,2.5289,2.5289,2.5289,2.5201,2.5199,2.5197,0,0,0,0,0,0,0,0,0,0,0,0,0,2.5547,2.5545,2.5416,2.5415,2.5414,2.533,2.5329,2.5328,2.5289,2.5289,2.5289,2.529,2.5202,2.5199,2.5196,0,0,0,0,0,0,0,0,0,0,0,0,0,2.5479,2.5545,2.5417,2.5385,2.5381,2.5331,2.5329,2.5328,2.5289,2.5289,2.5289,2.529,2.5203,2.52,2.5196,2.5171,0,0,2.5185,2.5183,0,0,0,0,0,0,0,0,2.5483,2.5474,2.5391,2.5387,2.5383,2.5321,2.5343,2.5275,2.5289,2.5324,2.5289,2.529,2.5241,2.5234,2.5218,2.5167,2.5163,2.5185,2.5182,2.5181,2.518,0,0,0,0,0,0,0,2.5488,2.5478,2.5382,2.5389,2.5385,2.5375,2.5365,2.533,2.5283,2.5321,2.5318,2.5308,2.5239,2.5221,2.5215,2.5162,2.5185,2.5182,2.5179,2.5178,2.5086,2.5086,0,0,0,0,0,0,2.5498,2.5482,2.5385,2.538,2.5434,2.5372,2.5362,2.534,2.5283,2.5275,2.5308,2.5307,2.5228,2.522,2.5212,2.5179,2.5181,2.5177,2.5175,2.5086,2.5086,2.5086,0,0,0,0,0,0,2.5501,2.5489,2.5389,2.543,2.5416,2.537,2.5346,2.5339,2.5321,2.5273,2.5265,2.5299,2.5227,2.5217,2.5182,2.5175,2.5176,2.5173,2.5087,2.5086,2.5086,2.5112,0,0,0,0,0,0,2.5504,2.5491,2.5481,2.543,2.5414,2.5359,2.5346,2.5337,2.5315,2.5312,2.5263,2.5255,2.5227,2.5187,2.5178,2.517,2.517,2.5087,2.5086,2.5086,2.5112,2.5113,2.5114,0,0,0,0,0,2.5509,2.5491,2.548,2.5469,2.5401,2.5359,2.535,2.5318,2.5315,2.5304,2.5274,2.5256,2.5178,2.5184,2.5173,2.5164,2.5087,2.5087,2.5086,2.5111,2.5113,2.5114,0,0,0,0,0,0,2.5543,2.5484,2.5471,2.5436,2.5403,2.5352,2.5338,2.5321,2.5288,2.5286,2.5249,2.5238,2.5205,2.5181,2.5189,2.5137,2.5131,2.5128,2.5154,2.5155,2.5156,2.5162,2.5167,0,0,0,0,0,2.5546,2.5517,2.5467,2.5442,2.5425,2.5385,2.5365,2.5344,2.5308,2.5293,2.526,2.5226,2.5193,2.5173,2.514,2.5109,2.5097,2.5097,2.5098,2.5099,2.5097,2.5079,2.5078,2.5084,2.5084,2.5084,0,0,2.5552,2.5517,2.5501,2.5447,2.5419,2.539,2.5373,2.5343,2.5321,2.5289,2.5253,2.5227,2.5187,2.5153,2.5136,2.5132,2.5093,2.5099,2.51,2.5097,2.5078,2.5078,2.5077,2.5084,2.5084,2.5084,0,0,2.5549,2.552,2.5494,2.5466,2.5423,2.5396,2.5391,2.5343,2.5324,2.5288,2.5263,2.5237,2.5182,2.5154,2.5132,2.5119,2.5102,2.511,2.5115,2.5097,2.5097,2.5096,2.5091,2.509,2.5108,2.5108,2.5108,0,2.5563,2.5517,2.5484,2.5455,2.5432,2.5402,2.5376,2.5351,2.53,2.5285,2.528,2.5211,2.5181,2.514,2.5137,2.5121,2.5113,2.5115,2.5099,2.5098,2.5097,2.5092,2.5091,2.5109,2.5109,2.5109,2.5109,0,2.5536,2.5505,2.549,2.5441,2.5416,2.5389,2.5352,2.5331,2.5312,2.5286,2.5249,2.5213,2.5173,2.5162,2.5143,2.5118,2.5117,2.5107,2.5099,2.5099,2.5093,2.5091,2.5111,2.511,2.511,2.511,0,0,2.5551,2.5484,2.5479,2.5456,2.5407,2.5382,2.5354,2.5314,2.5297,2.5263,2.5239,2.5193,2.5183,2.5159,2.5137,2.5122,2.5113,2.5113,2.5112,2.5114,2.5084,2.5092,2.509,2.5102,2.5101,2.5101,2.5088,0,2.554,2.5488,2.5457,2.5417,2.5388,2.5359,2.5334,2.5302,2.5277,2.5248,2.5221,2.5189,2.5179,2.5164,2.5148,2.5118,2.5107,2.5118,2.5079,2.5078,2.5089,2.5087,2.5095,2.5084,2.5085,2.5085,2.5085,0,2.5521,2.5487,2.5444,2.5398,2.5385,2.5363,2.5324,2.5298,2.526,2.5243,2.5216,2.5194,2.5163,2.516,2.5117,2.5126,2.5108,2.5091,2.509,2.5084,2.5081,2.5081,2.508,2.5078,2.5081,2.5081,2.5081,0,2.5536,2.548,2.5446,2.5428,2.5373,2.5359,2.5335,2.5298,2.5276,2.5243,2.5228,2.5192,2.5172,2.5144,2.5113,2.5113,2.5074,2.5067,2.5059,2.506,2.5052,2.5052,2.5046,2.5041,2.5041,2.5041,2.5041,0,2.5527,2.5502,2.5452,2.5432,2.5403,2.5368,2.5341,2.5315,2.5282,2.5256,2.523,2.5207,2.5167,2.5139,2.5115,2.5083,2.5075,2.506,2.5054,2.5062,2.5064,2.505,2.5049,2.5041,2.5041,2.5041,2.5041,0,2.5538,2.5504,2.5466,2.5417,2.5405,2.5385,2.5344,2.5323,2.5297,2.5265,2.5256,2.5214,2.518,2.5147,2.5101,2.5084,2.5053,2.5045,2.5066,2.5062,2.5056,2.5057,2.504,2.5036,2.5034,2.5034,2.5034,0,2.5535,2.5515,2.5464,2.5444,2.5421,2.5391,2.5368,2.5334,2.5311,2.5267,2.5252,2.5216,2.5185,2.5132,2.5098,2.5063,2.5054,2.505,2.5048,2.5058,2.5053,2.5055,2.5053,2.5051,2.5051,2.5052,2.5052,0,2.5532,2.5516,2.5485,2.5447,2.5421,2.539,2.5358,2.5344,2.5303,2.5279,2.5244,2.522,2.5173,2.5137,2.5099,2.5075,2.5057,2.5053,2.5049,2.5057,2.507,2.5062,2.5068,2.5053,2.5053,2.5053,2.5053,2.5053,2.5536,2.5516,2.5477,2.5443,2.5415,2.5386,2.5364,2.5335,2.5304,2.5263,2.5245,2.5209,2.5172,2.5118,2.5095,2.5067,2.5062,2.5057,2.5056,2.5055,2.5056,2.5075,2.506,2.506,2.506,2.506,2.506,0,2.5531,2.5505,2.5473,2.5429,2.5402,2.5387,2.5351,2.5329,2.5298,2.5265,2.5235,2.5195,2.516,2.5124,2.5088,2.5073,2.5063,2.5064,2.5065,2.506,2.5063,2.5069,2.5072,2.5072,2.5072,2.5072,2.5072,2.5072,2.5526,2.5492,2.5472,2.5424,2.5398,2.5362,2.5342,2.5316,2.5289,2.5245,2.5216,2.5192,2.5158,2.5119,2.5087,2.5078,2.5066,2.5069,2.5057,2.506,2.5059,2.5059,2.5065,2.5067,2.5067,2.5056,2.5056,2.5056]}]]